Regional Weather Roundup
Issued by NWS

Home | Current Version | Previous Version | Text Only | Print | Product List | Glossary Off
Versions: 1 2 3 4 5 6 7 8 9 10 11 12 13 14 15 16 17 18 19 20 21 22 23 24 25 26 27 28 29 30 31 32 33 34 35 36 37 38 39 40 41 42 43 44 45 46 47 48 49 50

000
ASUS43 KFSD 181202
RWRSD

WEATHER ROUNDUP FOR SOUTH DAKOTA
NATIONAL WEATHER SERVICE SIOUX FALLS SD
600 AM CST THU DEC 18 2014

NOTE: "FAIR" INDICATES FEW OR NO CLOUDS BELOW 12,000 FEET WITH NO
SIGNIFICANT WEATHER AND/OR OBSTRUCTIONS TO VISIBILITY.


SDZ001>005-009-010-012>017-181300-
NORTHWEST AND NORTH CENTRAL SOUTH DAKOTA

CITY           SKY/WX    TMP DP  RH WIND       PRES   REMARKS
BUFFALO          N/A     24  21  88 S9        29.88F WCI  14
FAITH            N/A     21  16  81 S12       30.00F WCI   9
MOBRIDGE       CLOUDY    20  17  88 SE10      30.07F WCI   9
$$

SDZ012>016-024>037-041>051-057-063-072>074-181300-
SOUTHWEST AND SOUTH CENTRAL SOUTH DAKOTA

CITY           SKY/WX    TMP DP  RH WIND       PRES   REMARKS
RAPID CTY ARPT CLOUDY    22  20  92 S7        29.99S FOG     WCI  13
PIERRE         CLOUDY    21  19  92 SE8       30.10F WCI  11
CUSTER         PTCLDY    22  16  78 NW3       29.91S
ELLSWORTH AFB  CLOUDY    22  20  95 S6        29.97  FOG     WCI  14
PHILIP         CLOUDY    23  20  88 CALM      30.06S
PINE RIDGE     MOCLDY    10   6  84 W5        30.01S WCI   2
WINNER         CLOUDY    24  21  88 SE8       30.10S WCI  15
$$

SDZ004>011-016>023-039-040-181300-
NORTHEAST SOUTH DAKOTA

CITY           SKY/WX    TMP DP  RH WIND       PRES   REMARKS
ABERDEEN       CLOUDY    18  12  77 SE7       30.19F WCI   9
WATERTOWN      CLOUDY    16  10  77 SE7       30.17S WCI   6
SISSETON         N/A      7   4  87 S6        30.23S WCI  -3
$$

SDZ017-020-022-023-036>040-048>070-181300-
SOUTHEAST SOUTH DAKOTA

CITY           SKY/WX    TMP DP  RH WIND       PRES   REMARKS
SIOUX FALLS    CLOUDY    19  15  84 E6        30.21S WCI  11
HURON          CLOUDY    19  15  84 SE7       30.19F WCI  10
MITCHELL       CLOUDY    21  17  84 SE6       30.20F WCI  13
YANKTON        CLOUDY    21  18  86 E6        30.21F WCI  14
$$

ABBREVIATIONS USED IN REMARKS
   TC - TEMPERATURE IN CELSIUS
  WCI - WIND CHILL INDEX
   HX - HEAT INDEX
  VSB - VISIBILITY



USA.gov is the U.S. government's official web portal to all federal, state and local government web resources and services.